Location: Newark
(49.3000°N, 9.4667°E)
Time: 10:15:29
(UTC+00:00)

deb Explorer IX - Visible Passes

Search period start: 24 May 2019 00:00
Search period end: 03 June 2019 00:00
Orbit: 538 x 1114 km, 38.8° (Epoch: 23 May)

Date Brightness Start Highest point End Pass type
(mag) Time Alt. Az. Time Alt. Az. Time Alt. Az.
24 May ? 02:07:12 13° SSW 02:08:58 17° SSE 02:11:42 10° SE visible
25 May ? 01:46:27 16° S 01:47:20 17° SSE 01:50:01 10° SE visible
26 May ? 01:25:43 17° SSE 01:25:43 17° SSE 01:28:21 10° SE visible
27 May ? 01:05:00 16° SSE 01:05:00 16° SSE 01:06:43 10° SE visible
28 May ? 00:44:21 13° SE 00:44:21 13° SE 00:45:06 10° SE visible
28 May ? 02:25:44 10° SW 02:28:23 18° S 02:31:13 10° SE visible
29 May ? 02:05:10 14° SW 02:06:45 18° S 02:09:32 10° SE visible
30 May ? 01:44:45 17° SSW 01:45:07 17° S 01:47:51 10° SE visible
31 May ? 01:24:32 16° S 01:24:32 16° S 01:26:12 10° SSE visible
02 Jun ? 20:44:28 10° S 20:45:54 12° SSE 20:45:54 12° SSE visible
